Location: Kellogg
(38.0159°N, 90.0546°W)
Time: 00:30:03
(UTC+00:00)

Transit 2A - Pass Details

Date: 21 September 2024
Orbit: 590 x 960 km, 66.7° (Epoch: 09 October)

Event Time Altitude Azimuth Distance (km) Brightness Sun altitude
Rises 01:05:01 0° 269° (W) 3,510 11.1 -13.7°
Reaches altitude 10° 01:09:10 10° 296° (WNW) 2,634 10.1 -14.5°
Maximum altitude 01:11:51 13° 322° (NW) 2,459 9.3 -15.0°
Drops below altitude 10° 01:14:34 10° 348° (NNW) 2,687 9.1 -15.5°
Sets 01:18:55 0° 15° (NNE) 3,649 9.5 -16.3°
